Flag for Spain Weather past 2 weeks in Santander, Spain

Now
57 °F

Drizzle. Mostly cloudy.


Feels Like: 57 °F
Forecast: 57 / 66 °F
Wind: No wind

Location: Santander / Parayas

Current Time: Sep 4, 2015 at 9:52:09 AM

Latest Report: Sep 4, 2015 at 9:00 AM


Visibility: 5 mi

Pressure: 30.12 "Hg

Humidity: 94%

Dew point: 55 °F

Location of SantanderLocation

Historic Weather in Santander — Graph

°F

Santander temperature yesterday

Maximum temperature yesterday: 61 °F (at 12:00 PM)
Minimum temperature yesterday: 57 °F (at 7:30 AM)
Average temperature yesterday: 59 °F

Past Weeks' High & Low Weather Summary

 TemperatureHumidityPressure
High91 °F (Aug 27, 5:00 PM)100% (Aug 29, 7:00 AM)30.18 "Hg (Aug 29, 7:00 AM)
Low57 °F (Aug 20, 8:00 AM)28% (Aug 27, 5:00 PM)29.56 "Hg (Aug 23, 6:30 PM)
Average69 °F77%29.97 "Hg
* Reported Aug 20 8:00 AM — Sep 4 8:30 AM, Santander, Weather by CustomWeather, © 2015

Note: Actual official high and low records may vary slightly from our data, if they occured in-between our weather recording intervals... More about our weather records

Advertising

Santander weather history for previous 24 hours

 ConditionsComfort  
Time TempWeatherWind HumidityBarometerVisibility
8:30 AM
Fri, Sep 4
57 °FLight rain. Mostly cloudy.No wind88%30.09 "HgN/A
8:00 AM57 °FDrizzle. Mostly cloudy.No wind94%30.09 "Hg4 mi
7:30 AM57 °FOvercast.No wind94%30.09 "HgN/A
7:00 AM57 °FDrizzle. Overcast.No wind94%30.09 "Hg5 mi
6:30 AM57 °FOvercast.No wind88%30.09 "HgN/A
6:00 AM57 °FDrizzle. Overcast.No wind88%30.09 "Hg4 mi
5:30 AM57 °FOvercast.3 mph88%30.09 "HgN/A
11:00 PM
Thu, Sep 3
59 °FPassing clouds.8 mph88%30.12 "HgN/A
10:30 PM59 °FPassing clouds.7 mph88%30.12 "HgN/A
10:00 PM59 °FPassing clouds.6 mph94%30.12 "HgN/A
9:30 PM59 °FBroken clouds.5 mph94%30.12 "HgN/A
9:00 PM59 °FBroken clouds.5 mph94%30.12 "HgN/A
8:30 PM59 °FBroken clouds.3 mph94%30.12 "HgN/A
8:00 PM59 °FLight rain. Broken clouds.5 mph94%30.12 "Hg4 mi
7:30 PM59 °FBroken clouds.5 mph94%30.12 "HgN/A
7:00 PM59 °FLight rain. Broken clouds.No wind94%30.09 "HgN/A
6:30 PM61 °FLight rain. Broken clouds.6 mph94%30.09 "Hg3 mi
6:00 PM61 °FBroken clouds.6 mph94%30.09 "HgN/A
5:30 PM61 °FBroken clouds.6 mph94%30.12 "HgN/A
5:00 PM61 °FLight rain. More clouds than sun.6 mph94%30.12 "Hg4 mi
4:30 PM59 °FLight rain. Fog.5 mph94%30.12 "Hg3 mi
4:00 PM59 °FLight rain. Fog.6 mph94%30.12 "Hg3 mi
3:30 PM59 °FBroken clouds.5 mph94%30.12 "HgN/A
3:00 PM57 °FDrizzle. Fog.6 mph94%30.12 "Hg2 mi
2:30 PM59 °FDrizzle. Fog.8 mph88%30.12 "Hg2 mi
2:00 PM59 °FMore clouds than sun.8 mph88%30.12 "HgN/A
1:30 PM59 °FLight rain. More clouds than sun.13 mph94%30.12 "Hg5 mi
1:00 PM61 °FMore clouds than sun.8 mph88%30.12 "HgN/A
12:30 PM61 °FBroken clouds.6 mph94%30.09 "HgN/A
12:00 PM61 °FOvercast.6 mph94%30.09 "HgN/A
11:30 AM59 °FOvercast.7 mph100%30.09 "HgN/A
11:00 AM59 °FMore clouds than sun.6 mph94%30.09 "HgN/A
10:30 AM59 °FMore clouds than sun.6 mph94%30.09 "HgN/A
10:00 AM59 °FMore clouds than sun.5 mph94%30.07 "HgN/A
9:30 AM59 °FLight rain. Fog.5 mph94%30.07 "Hg2 mi
9:00 AM59 °FDrizzle. Fog.2 mph94%30.07 "Hg2 mi
Weather by CustomWeather, © 2015

See weather overviewHow to use our weather pages